Regional Weather Roundup
Issued by NWS Raleigh/Durham, NC

Home | Current Version | Previous Version | Text Only | Print | Product List | Glossary On
Versions: 1 2 3 4 5 6 7 8 9 10 11 12 13 14 15 16 17 18 19 20 21 22 23 24 25 26 27 28 29 30 31 32 33 34 35 36 37 38 39 40 41 42 43 44 45 46 47 48 49 50
000
ASUS42 KRAH 200610
RWRRAH
NORTH CAROLINA WEATHER ROUNDUP
NATIONAL WEATHER SERVICE RALEIGH NC
200 AM EDT SAT SEP 20 2014

NOTE: "FAIR" INDICATES FEW OR NO CLOUDS BELOW 12,000 FEET WITH NO
SIGNIFICANT WEATHER AND/OR OBSTRUCTIONS TO VISIBILITY.

NCZ001-053-055-056-065-067-200700-
WESTERN NORTH CAROLINA

CITY           SKY/WX    TMP DP  RH WIND       PRES   REMARKS
ASHEVILLE      CLOUDY    62  58  86 CALM      30.27S
JEFFERSON      DRZL/FOG  58  57  98 SE3       30.30S VSB 1
MORGANTON      CLOUDY    63  62  98 CALM      30.29S FOG
HICKORY        CLOUDY    64  61  90 NE6       30.24F
RUTHERFORDTON  NOT AVBL
MOUNT AIRY     CLOUDY    65  61  87 E6        30.27F
BOONE          CLOUDY    58  58 100 SE5       30.30F FOG
$$

NCZ021-022-025-041-071-084-088-200700-
CENTRAL NORTH CAROLINA

CITY           SKY/WX    TMP DP  RH WIND       PRES   REMARKS
CHARLOTTE      NOT AVBL
GREENSBORO     MOCLDY    61  59  93 CALM      30.24F
WINSTON-SALEM  MOCLDY    62  59  90 E3        30.25F
RALEIGH-DURHAM PTCLDY    62  56  80 E5        30.25S
FORT BRAGG     CLEAR     64  59  83 NE3       30.21S
FAYETTEVILLE   CLEAR     62  59  90 N6        30.20S
BURLINGTON     PTCLDY    63  59  87 CALM      30.24F
LAURINBURG     CLEAR     64  59  83 NE7       30.21S
$$

NCZ011-015-027-028-043-044-047-080-103-200700-
NORTHEASTERN NORTH CAROLINA

CITY           SKY/WX    TMP DP  RH WIND       PRES   REMARKS
ROCKY MT-WILSO CLEAR     60  57  89 NE7       30.23F
GREENVILLE     CLEAR     59  59 100 N5        30.22F
WASHINGTON     PTCLDY    61  58  88 NE6       30.21F
ELIZABETH CITY CLEAR     66  61  84 N7        30.22
MANTEO         MOCLDY    71  62  73 NE10      30.21F
CAPE HATTERAS  MOCLDY    70  64  81 NE10G17   30.17F
$$

NCZ078-087-090-091-093-098-101-200700-
SOUTHEASTERN NORTH CAROLINA

CITY           SKY/WX    TMP DP  RH WIND       PRES   REMARKS
LUMBERTON      CLEAR     65  59  81 NE9       30.18S
GOLDSBORO      CLEAR     63  62  97 CALM      30.19F
KINSTON        CLEAR     62  59  90 N5        30.21F
KENANSVILLE    MOCLDY    64  57  77 NE3       30.20F
NEW BERN       PTCLDY    69  59  70 NE10      30.19F
CHERRY POINT   MOCLDY    70  61  73 NE12      30.18F
BEAUFORT       CLOUDY    72  64  76 NE12      30.15F
JACKSONVILLE   MOCLDY    67  60  78 N9        30.16F
WILMINGTON     CLOUDY    67  62  84 NE10      30.15F
$$




USA.gov is the U.S. government's official web portal to all federal, state and local government web resources and services.